Location: Cosy Dell
(34.2789°N, 117.4537°W)
Time: 20:55:42
(UTC+00:00)

Cosmos 2034 Rocket - Pass Details

Date: 14 July 2020
Orbit: 959 x 1000 km, 82.9° (Epoch: 13 August)

Event Time Altitude Azimuth Distance (km) Brightness Sun altitude
Exits shadow 10:52:55 13° 167° (SSE) 2,442 5.8 -20.1°
Maximum altitude 10:58:14 57° 92° (E) 1,115 4.5 -19.3°
Drops below altitude 10° 11:04:15 10° 15° (NNE) 2,701 7.2 -18.4°
Sets 11:06:47 0° 12° (NNE) 3,654 7.9 -18.0°
